Showing default

HAIYANG 2B, 43655

Orbit data source: Space-Track

HAIYANG 2B, 43655 is a Chinese payload satellite in SSO that was launched on Wed, 24 Oct 2018 UTC via a CHANG ZHENG 4B launch vehicle from the Taiyaun Space Center, China (TSC). Payload-class satellites include a variety of spacecraft equipped with specific instruments for various scientific and technological missions. These include communications satellites like Starlink; space stations such as the ISS; scientific satellites like the Hubble; Earth observation satellites from companies like Planet Labs, Umbra, and HawkEye 360; GPS; miniature CubeSats for education and research; and military/defense satellites.

Loading next visibility...
Identifier
43655, 2018-081A
Orbit
SSO
Last TLE update
7 hours ago
Origin
Manufacturer
SISE
Mission
Operational Civil Science
Bus & Motor
CAST-968?, Unknown motor
Mass
~1,500 kg wet, ~1,500 kg dry
Launch date (UTC)
2018-10-24 (7 years ago)
Launch vehicle
CHANG ZHENG 4B
Launch site
Taiyaun Space Center, China (TSC)
Object type
Payload
Rocket body
Debris
Shape & HBR
Box + 2 Pan, 4 m
Radar Cross Section
2.315 m², Large (>1 m²)

Expand to show TLE details & history

TLE from 7 hours ago
0 HAIYANG 2B
1 43655U 18081A   25128.97706306  .00000025  00000-0  67371-4 0  9992
2 43655  99.3338 138.7393 0000157 283.2806  76.8328 13.79307059329200
Epoch: 2025-05-08T23:26Z
Definitive object data (Epoch: 2025-05-08T23:26:58.248Z)
Latitude
-0.00005°
Longitude
-80.04322°
Altitude
969.157 km
Speed
7.367 km/s
True Right ascension
09h 14m 57s
True Declination
0° 00' 00"
Sunlit
Object was in daylight at TLE epoch
Visualization TLE readout
Latitude
-39.62755°
Longitude
-71.98376°
Altitude
981.299 km
Speed
7.36 km/s
Apparent Right ascension
06h 29m 06s
Apparent Declination
-55° 32' 27"
Sunlit
Object is in daylight
Visualization observer readout
Local Sidereal Time
14:21:57
Azimuth
227.258° WSW
Elevation
-47.242°
Doppler factor
1
Orbital elements
Apogee altitude
963.704 km
Perigee altitude
963.474 km
Semi-major axis
7,341.726 km
Eccentricity
0.0000157
Inclination
99.3338°
RAAN
138.7393°
Arg. of periapsis
283.2806°
True anomaly
76.83455°
Mean anomaly
76.8328°
Eccentric anomaly
76.83368°
Mean motion
3.45021 °/min
BSTAR
0.000067371
Orbital period
104.34 mins
Loading maneuver chart data...
Loading SW <> Apogee altitude chart data...
Loading historical data...
Loading historical data...
Loading historical data...
Loading historical data...
Loading historical data...
Loading historical data...
Loading historical data...

HAIYANG 2B Visibility forecast

Observer location: undefined°, undefined°

Span
Click to sort rows by Start time (UTC) header in descending order
Start Az.
Max El. time (UTC)
Max El. Az.
Max El.
End time (UTC)
End Az.
8 mins2025-05-09 12:15:09.157Z47.954° ENE2025-05-09 12:19:09.157Z90.997° ESE19.137°2025-05-09 12:23:09.157Z135.626° SSE
10 mins2025-05-09 13:58:09.157Z2.951° NNE2025-05-09 14:02:09.157Z310.542° NW39.995°2025-05-09 14:08:09.157Z212.361° SW
10 mins2025-05-09 23:57:09.157Z137.404° SSE2025-05-10 00:02:09.157Z54.359° ENE36.499°2025-05-10 00:07:09.157Z357.755° N
8 mins2025-05-10 01:41:09.157Z219.843° SW2025-05-10 01:45:09.157Z269.728° W22.703°2025-05-10 01:49:09.157Z315.394° NNW
|